Lid_Strength_Index
2 3 3 3 3 3 3 3 3 3 3 4 4 4 4 4 4 4 4 3 3 3 3 3 3 2 4 7 7 2 -2 -3 0 4 6 7 9 10 12 11 11 11 9 8 7 8 9
2 3 3 3 3 3 3 3 3 3 3 3 3 3 4 4 3 3 3 3 3 3 3 3 2 2 6 11 4 -1 1 3 5 6 6 7 8 9 10 10 10 9 8 8 8 9 9
3 3 3 3 3 3 3 3 3 3 4 4 4 4 4 3 3 3 3 3 3 3 3 2 2 2 4 8 3 1 3 5 5 5 6 6 6 7 8 8 8 8 9 8 9 9 9
3 3 3 3 3 3 3 3 3 3 4 4 4 4 4 3 3 3 3 3 3 2 2 2 2 3 9 3 3 3 5 5 4 5 5 5 6 7 8 8 8 9 11 12 9 8 7
2 3 3 3 4 4 4 4 4 4 4 4 4 4 4 4 3 3 3 3 2 1 2 1 4 5 8 1 4 3 4 4 4 4 5 3 6 8 7 11 12 12 13 12 10 8 8
3 3 3 4 4 4 4 4 4 4 4 4 4 4 4 4 4 4 4 3 2 2 2 2 3 8 5 5 4 3 3 3 5 5 6 7 9 10 11 12 15 13 13 12 12 9 10
3 3 3 4 4 4 4 4 4 4 4 4 4 5 5 4 4 4 5 4 7 6 6 8 7 6 4 2 3 4 3 4 4 6 10 9 11 13 11 10 10 10 11 11 9 8 10
3 3 4 4 4 4 5 5 5 5 5 5 5 5 5 5 5 5 7 6 6 7 10 5 5 6 4 3 5 5 4 6 7 9 8 10 12 9 8 8 9 10 11 11 10 8 10
3 3 3 4 4 4 4 5 5 5 5 5 5 5 5 5 5 6 6 5 5 6 10 7 6 5 5 4 5 5 5 6 8 9 9 11 9 7 8 9 10 10 11 11 11 9 9
3 3 3 4 4 4 4 5 5 5 5 6 6 6 5 6 6 7 7 5 6 5 12 8 7 6 5 6 7 5 4 6 8 9 10 10 7 8 8 9 9 12 9 9 9 11 14
3 3 3 4 4 5 5 5 5 5 5 6 6 6 6 6 9 8 5 6 6 5 18 7 7 3 4 6 5 5 4 6 9 9 9 10 9 9 10 9 8 10 8 10 10 12 14
3 3 3 4 4 5 5 5 5 5 6 6 6 6 6 6 8 6 6 7 6 12 17 8 6 6 7 6 6 5 6 5 6 8 8 8 7 8 8 7 8 8 9 11 12 14 16
3 3 3 4 4 5 5 5 5 5 6 6 6 6 7 6 9 7 7 7 11 16 8 9 8 7 7 7 7 6 7 9 10 13 13 10 9 8 6 9 8 9 13 16 17 17 17
3 3 4 4 4 5 5 5 5 6 6 6 6 7 6 5 7 7 8 10 16 10 9 8 8 8 9 8 8 8 9 10 8 10 12 13 13 9 7 9 11 11 12 16 20 20 18
4 4 4 4 4 5 5 5 5 6 6 6 7 8 6 4 5 7 10 14 13 9 7 9 9 11 11 9 9 9 10 10 9 9 11 13 12 7 7 7 8 11 13 11 15 16 18
4 4 4 4 4 4 5 5 5 5 6 6 10 9 6 4 5 8 12 13 11 7 7 8 11 10 12 11 10 11 10 8 8 7 9 10 14 9 8 8 8 10 9 15 15 21 22
4 4 4 4 4 5 5 5 5 6 6 7 10 9 5 5 6 10 14 13 9 6 7 9 10 11 10 11 10 11 10 9 7 8 8 10 12 11 9 11 13 13 13 13 14 16 20
4 4 4 4 4 5 5 6 6 6 7 9 12 12 6 5 10 11 12 9 8 8 8 8 9 10 11 10 11 11 10 8 7 8 10 10 12 14 12 10 9 10 12 13 17 18 16
4 4 4 4 5 5 5 6 6 6 7 11 13 12 6 7 13 13 11 9 7 9 9 9 10 9 9 11 13 10 9 6 7 7 10 10 14 16 14 12 9 11 10 12 13 14 17
5 5 5 5 5 5 5 5 6 6 6 11 11 11 10 9 10 12 13 11 11 8 8 8 9 9 10 11 10 12 10 7 6 7 5 7 12 14 16 14 12 13 11 11 13 17 16
5 5 5 5 5 5 4 5 5 6 6 9 10 12 12 14 13 13 13 11 11 11 8 8 10 9 11 13 12 11 10 9 7 5 7 11 14 12 12 11 11 11 11 11 13 12 15
5 5 5 5 5 4 4 5 5 5 6 10 13 13 12 13 12 13 12 13 12 11 11 11 11 10 11 13 12 12 11 11 10 8 10 11 14 13 13 10 10 11 10 10 10 10 12
5 5 5 5 5 5 5 5 5 5 7 12 11 11 12 13 14 14 14 12 12 11 10 9 10 11 12 11 10 10 10 10 9 11 11 12 13 14 16 11 12 15 11 10 11 10 11
5 5 5 5 4 4 4 5 5 5 6 11 12 12 14 15 13 13 11 11 12 12 12 10 10 12 9 7 8 10 11 10 10 10 9 11 13 13 17 14 19 12 8 8 9 9 9
4 5 5 5 5 5 5 5 5 5 5 10 11 12 11 15 12 12 12 12 12 11 11 11 10 9 9 9 12 14 14 13 11 10 10 9 11 14 17 17 14 11 9 9 11 12 8
5 5 5 5 5 5 5 5 5 5 5 10 11 10 10 13 15 11 13 12 14 15 13 11 9 9 10 12 13 17 17 14 14 12 9 9 9 12 16 18 20 13 8 6 7 14 8
5 5 5 6 5 5 5 5 5 5 5 8 10 9 10 13 12 12 14 14 11 13 14 13 12 12 11 13 15 16 16 12 15 15 14 13 12 14 15 16 15 9 7 6 14 13 8
6 6 6 6 6 5 5 5 5 5 5 8 9 8 9 11 10 9 8 10 10 12 14 13 13 12 12 14 13 13 14 13 14 12 13 13 14 15 15 17 17 7 8 11 10 9 8
6 6 6 6 6 5 5 5 4 4 4 5 8 7 6 10 10 7 6 5 7 7 9 10 10 12 10 10 10 11 13 11 12 16 10 14 12 14 13 14 9 7 7 7 7 8 8